DW8108 Weather Reports


Display with metric or nautical units.
time (UTC)temp
F
wind
direction
speed
MPH
gust
MPH
rain 1hr
in
rain 24hr
in
rain mn
in
humidity
%
barometer
mb
20260904220033 92 0.0 6.0 0.00 0.00 0.00 72 1010.1
20260904214530 92 0.0 7.0 0.00 0.00 0.00 72 1010.2
20260904213032 92 0.0 10.0 0.00 0.00 0.00 71 1010.4
20260904211528 92 0.0 9.0 0.00 0.00 0.00 71 1010.4
20260904210028 92 0.0 8.0 0.00 0.00 0.00 71 1010.5
20260904204524 92 0.0 9.0 0.00 0.00 0.00 70 1010.8
20260904203032 92 0.0 11.0 0.00 0.00 0.00 71 1010.9
20260904201522 91 0.0 8.0 0.00 0.00 0.00 74 1011.2
20260904200021 90 0.0 8.0 0.00 0.00 0.00 74 1011.4
20260904194521 90 0.0 9.0 0.00 0.00 0.00 75 1011.7
20260904193021 89 0.0 10.0 0.00 0.00 0.00 74 1011.9
20260904191520 89 0.0 9.0 0.00 0.00 0.00 75 1011.9
20260904190021 88 0.0 12.0 0.00 0.00 0.00 75 1012.2
20260904184513 88 0.0 16.0 0.00 0.00 0.00 74 1012.7
20260904183013 89 0.0 15.0 0.00 0.00 0.00 74 1013.1
20260904181512 90 0.0 10.0 0.00 0.00 0.00 72 1013.2
20260904180014 90 0.0 9.0 0.00 0.00 0.00 73 1013.5
20260904174511 89 0.0 13.0 0.00 0.00 0.00 74 1013.7
20260904173010 89 0.0 10.0 0.00 0.00 0.00 72 1013.9
20260904171510 91 0.0 5.0 0.00 0.00 0.00 71 1013.6
20260904170010 91 0.0 8.0 0.00 0.00 0.00 69 1013.5
20260904164510 92 0.0 7.0 0.00 0.00 0.00 69 1013.6
20260904163007 92 0.0 5.0 0.00 0.00 0.00 68 1013.5
20260904161504 91 0.0 6.0 0.00 0.00 0.00 69 1013.5
20260904160100 90 0.0 6.0 0.00 0.00 0.00 70 1013.6
20260904154558 89 0.0 8.0 0.00 0.00 0.00 71 1013.4
20260904153057 89 0.0 8.0 0.00 0.00 0.00 74 1013.3
20260904151551 88 0.0 7.0 0.00 0.00 0.00 75 1013.1
20260904150049 87 0.0 8.0 0.00 0.00 0.00 76 1013.2
20260904144544 86 0.0 7.0 0.00 0.00 0.00 77 1013.1
20260904143042 85 0.0 6.0 0.00 0.00 0.00 81 1012.8
20260904141539 84 0.0 2.0 0.00 0.00 0.00 83 1012.9
20260904140048 82 0.0 4.0 0.00 0.00 0.00 85 1012.9
20260904134530 81 0.0 4.0 0.00 0.00 0.00 88 1012.9
20260904133027 80 0.0 0.0 0.00 0.00 0.00 93 1013.0
20260904131522 78 0.0 0.0 0.00 0.00 0.00 94 1012.9
20260904130033 77 0.0 0.0 0.00 0.00 0.00 95 1012.7
20260904124518 75 0.0 2.0 0.00 0.00 0.00 96 1012.6
20260904123015 74 0.0 2.0 0.00 0.00 0.00 96 1012.3
20260904121515 73 0.0 2.0 0.00 0.00 0.00 95 1012.0
20260904120016 73 0.0 2.0 0.00 0.00 0.00 95 1012.0
20260904114513 73 0.0 2.0 0.00 0.00 0.00 95 1011.5
20260904113013 73 0.0 2.0 0.00 0.00 0.00 95 1011.4
20260904111528 73 0.0 4.0 0.00 0.00 0.00 95 1011.4
20260904110011 73 0.0 3.0 0.00 0.00 0.00 95 1011.4
20260904104511 73 0.0 4.0 0.00 0.00 0.00 95 1011.3
20260904103015 73 0.0 4.0 0.00 0.00 0.00 95 1011.3
20260904101509 73 0.0 3.0 0.00 0.00 0.00 95 1011.3
20260904100008 74 0.0 3.0 0.00 0.00 0.00 95 1011.5
20260904094506 74 0.0 2.0 0.00 0.00 0.00 95 1011.8
20260904093006 74 0.0 1.0 0.00 0.00 0.00 95 1012.0
20260904091505 74 0.0 0.0 0.00 0.00 0.00 94 1012.0
20260904090005 74 0.0 0.0 0.00 0.00 0.00 95 1011.9
20260904084504 75 0.0 2.0 0.00 0.00 0.00 95 1011.8
20260904083002 75 0.0 3.0 0.00 0.00 0.00 95 1011.6
20260904081506 75 0.0 4.0 0.00 0.00 0.00 95 1011.3
20260904080002 75 0.0 5.0 0.00 0.00 0.00 95 1011.1
20260904074612 75 0.0 7.0 0.00 0.00 0.00 95 1011.0
20260904073102 75 0.0 6.0 0.00 0.00 0.00 94 1011.2
20260904071554 75 0.0 4.0 0.00 0.00 0.00 94 1011.6
20260904070053 75 0.0 1.0 0.00 0.00 0.00 94 1012.0
20260904064551 75 0.0 3.0 0.00 0.00 0.00 94 1012.3
20260904063101 76 0.0 4.0 0.00 0.00 0.00 94 1012.3
20260904061548 76 0.0 4.0 0.00 0.00 0.00 93 1012.4
20260904060047 76 0.0 4.0 0.00 0.00 0.00 93 1012.4
20260904054545 76 0.0 4.0 0.00 0.00 0.00 93 1012.4
20260904053045 76 0.0 4.0 0.00 0.00 0.00 92 1012.4
20260904051558 76 0.0 4.0 0.00 0.00 0.00 92 1012.4
20260904050040 77 0.0 5.0 0.00 0.00 0.00 92 1012.3
20260904044540 77 0.0 6.0 0.00 0.00 0.00 92 1012.4
20260904043039 77 0.0 5.0 0.00 0.00 0.00 92 1012.4
20260904041542 77 0.0 5.0 0.00 0.00 0.00 91 1012.5
20260904040039 77 0.0 5.0 0.00 0.00 0.00 91 1012.6
20260904034537 78 0.0 5.0 0.00 0.00 0.00 91 1012.5
20260904033037 78 0.0 5.0 0.00 0.00 0.00 90 1012.4
20260904031537 78 0.0 3.0 0.00 0.00 0.00 90 1012.4
20260904030036 78 0.0 4.0 0.00 0.00 0.00 89 1012.5
20260904024536 79 0.0 4.0 0.00 0.00 0.00 89 1012.5
20260904023037 79 0.0 2.0 0.00 0.00 0.00 88 1012.4
20260904021537 79 0.0 5.0 0.00 0.00 0.00 88 1012.1
20260904020036 79 0.0 6.0 0.00 0.00 0.00 88 1012.0
20260904014633 79 0.0 6.0 0.00 0.00 0.00 87 1011.8
20260904013033 80 0.0 3.0 0.00 0.00 0.00 87 1011.7
20260904011537 81 0.0 6.0 0.00 0.00 0.00 86 1011.7
20260904010044 82 0.0 4.0 0.00 0.00 0.00 84 1011.4
20260904004531 83 0.0 5.0 0.00 0.00 0.00 83 1011.3
20260904003031 84 0.0 4.0 0.00 0.00 0.00 82 1011.3
20260904001532 85 0.0 3.0 0.00 0.00 0.00 81 1011.3
20260904000033 87 0.0 2.0 0.00 0.00 0.00 80 1011.3
20260903234529 88 0.0 2.0 0.00 0.00 0.00 79 1011.4
20260903233029 89 0.0 3.0 0.00 0.00 0.00 77 1011.4
20260903231529 89 0.0 4.0 0.00 0.00 0.00 75 1011.2
20260903230028 90 0.0 3.0 0.00 0.00 0.00 74 1011.2
20260903224527 91 0.0 4.0 0.00 0.00 0.00 71 1011.4
20260903223034 91 0.0 4.0 0.00 0.00 0.00 70 1011.4
20260903221527 91 0.0 4.0 0.00 0.00 0.00 69 1011.3